| time (UTC) | temp C | wind direction | speed KPH | gust KPH | rain 1hr cm | rain 24hr cm | rain mn cm | humidity % | barometer mb |
| 20260510125713 | 10 | 225 | 0.0 | 0.0 | 0.00 | 1.68 | 0.00 | 88 | 1015.4 |
| 20260510125612 | 10 | 225 | 0.0 | 0.0 | 0.00 | 1.68 | 0.00 | 89 | 1015.5 |
| 20260510123612 | 10 | 247 | 0.0 | 0.0 | 0.00 | 1.70 | 0.00 | 89 | 1015.4 |
| 20260510122711 | 10 | 149 | 0.0 | 4.8 | 0.00 | 1.73 | 0.00 | 89 | 1015.5 |
| 20260510121714 | 10 | 176 | 3.2 | 6.4 | 0.00 | 1.73 | 0.00 | 89 | 1015.5 |
| 20260510115812 | 10 | 247 | 0.0 | 0.0 | 0.00 | 1.73 | 0.00 | 88 | 1015.7 |
| 20260510113914 | 9 | 202 | 1.6 | 3.2 | 0.00 | 1.73 | 0.00 | 88 | 1015.6 |
| 20260510112013 | 9 | 247 | 1.6 | 3.2 | 0.00 | 1.73 | 0.00 | 89 | 1015.5 |
| 20260510111914 | 9 | 256 | 1.6 | 3.2 | 0.00 | 1.73 | 0.00 | 88 | 1015.5 |
| 20260510110915 | 8 | 202 | 1.6 | 3.2 | 0.00 | 1.73 | 0.00 | 89 | 1015.1 |
| 20260510110829 | 8 | 243 | 0.0 | 0.0 | 0.00 | 1.73 | 0.00 | 89 | 1015.1 |
| 20260510110711 | 8 | 247 | 0.0 | 1.6 | 0.00 | 1.73 | 0.00 | 89 | 1015.1 |
| 20260510105712 | 8 | 157 | 0.0 | 0.0 | 0.00 | 1.73 | 0.00 | 89 | 1014.8 |
| 20260510103714 | 7 | 22 | 0.0 | 0.0 | 0.00 | 1.73 | 0.00 | 89 | 1014.7 |
| 20260510100827 | 7 | 270 | 0.0 | 0.0 | 0.00 | 1.73 | 0.00 | 88 | 1014.4 |
| 20260510095815 | 7 | 180 | 0.0 | 0.0 | 0.00 | 1.73 | 0.00 | 89 | 1013.9 |
| 20260510095714 | 7 | 180 | 0.0 | 0.0 | 0.00 | 1.73 | 0.00 | 89 | 1013.9 |
| 20260510094812 | 7 | 270 | 0.0 | 0.0 | 0.00 | 1.73 | 0.00 | 88 | 1013.9 |
| 20260510094729 | 7 | 270 | 0.0 | 0.0 | 0.00 | 1.73 | 0.00 | 88 | 1013.9 |
| 20260510093715 | 7 | 157 | 0.0 | 0.0 | 0.00 | 1.73 | 0.00 | 89 | 1013.9 |
| 20260510092715 | 7 | 247 | 1.6 | 1.6 | 0.00 | 1.73 | 0.00 | 89 | 1014.2 |
| 20260510085714 | 7 | 337 | 0.0 | 0.0 | 0.00 | 1.73 | 0.00 | 88 | 1014.2 |
| 20260510083714 | 7 | 337 | 0.0 | 0.0 | 0.00 | 1.73 | 0.00 | 89 | 1014.4 |
| 20260510082713 | 7 | 337 | 0.0 | 0.0 | 0.00 | 1.73 | 0.00 | 88 | 1014.3 |
| 20260510081614 | 7 | 337 | 0.0 | 0.0 | 0.00 | 1.73 | 0.00 | 88 | 1014.1 |
| 20260510075716 | 7 | 337 | 0.0 | 0.0 | 0.00 | 1.73 | 0.00 | 89 | 1014.4 |
| 20260510074712 | 7 | 337 | 0.0 | 0.0 | 0.00 | 1.73 | 0.00 | 89 | 1014.2 |
| 20260510073713 | 7 | 337 | 0.0 | 0.0 | 0.00 | 1.73 | 0.00 | 89 | 1014.1 |
| 20260510072713 | 7 | 337 | 0.0 | 0.0 | 0.00 | 1.73 | 0.00 | 89 | 1014.2 |
| 20260510071812 | 7 | 337 | 0.0 | 0.0 | 0.00 | 1.73 | 0.00 | 89 | 1014.1 |
| 20260510070814 | 7 | 337 | 0.0 | 0.0 | 0.00 | 1.73 | 0.00 | 89 | 1014.0 |
| 20260510070715 | 7 | 337 | 0.0 | 0.0 | 0.00 | 1.73 | 0.00 | 88 | 1014.1 |
| 20260510065714 | 7 | 337 | 0.0 | 0.0 | 0.00 | 1.73 | 0.00 | 88 | 1014.1 |
| 20260510064731 | 7 | 337 | 0.0 | 0.0 | 0.00 | 1.73 | 0.00 | 89 | 1014.1 |
| 20260510063714 | 7 | 337 | 0.0 | 0.0 | 0.00 | 1.73 | 0.00 | 88 | 1014.4 |
| 20260510062713 | 7 | 337 | 0.0 | 0.0 | 0.00 | 1.73 | 0.00 | 88 | 1014.3 |
| 20260510061713 | 7 | 337 | 0.0 | 0.0 | 0.00 | 1.73 | 0.00 | 88 | 1014.3 |
| 20260510060713 | 7 | 337 | 0.0 | 0.0 | 0.00 | 1.73 | 0.00 | 88 | 1014.2 |
| 20260510055712 | 7 | 337 | 0.0 | 0.0 | 0.00 | 1.73 | 0.00 | 89 | 1014.4 |
| 20260510054712 | 7 | 337 | 0.0 | 0.0 | 0.00 | 1.73 | 0.00 | 88 | 1014.3 |
| 20260510051713 | 7 | 311 | 0.0 | 4.8 | 0.00 | 1.73 | 0.00 | 89 | 1014.4 |
| 20260510051612 | 7 | 337 | 0.0 | 0.0 | 0.00 | 1.73 | 0.00 | 89 | 1014.4 |
| 20260510050613 | 7 | 337 | 0.0 | 1.6 | 0.00 | 1.73 | 0.00 | 89 | 1014.4 |
| 20260510045611 | 7 | 180 | 1.6 | 1.6 | 0.00 | 1.73 | 0.00 | 89 | 1014.5 |
| 20260510044613 | 7 | 315 | 1.6 | 3.2 | 0.00 | 1.73 | 0.00 | 89 | 1014.6 |
| 20260510042711 | 7 | 254 | 0.0 | 1.6 | 0.00 | 1.73 | 0.00 | 90 | 1014.9 |
| 20260510042612 | 7 | 282 | 0.0 | 1.6 | 0.00 | 1.73 | 0.00 | 90 | 1014.8 |
| 20260510041613 | 7 | 337 | 0.0 | 0.0 | 0.00 | 1.73 | 0.00 | 90 | 1014.7 |
| 20260510040712 | 7 | 337 | 0.0 | 0.0 | 0.00 | 1.73 | 0.00 | 90 | 1014.7 |
| 20260510040614 | 7 | 337 | 0.0 | 0.0 | 0.00 | 1.73 | 0.00 | 89 | 1014.7 |
| 20260510035616 | 7 | 337 | 0.0 | 0.0 | 0.00 | 1.73 | 1.73 | 90 | 1014.8 |
| 20260510033620 | 7 | 337 | 0.0 | 0.0 | 0.00 | 1.73 | 1.73 | 89 | 1014.6 |
| 20260510032716 | 7 | 337 | 0.0 | 0.0 | 0.00 | 1.73 | 1.73 | 90 | 1014.8 |
| 20260510031718 | 7 | 337 | 0.0 | 0.0 | 0.00 | 1.73 | 1.73 | 90 | 1015.0 |
| 20260510030816 | 7 | 337 | 0.0 | 0.0 | 0.00 | 1.73 | 1.73 | 90 | 1015.0 |
| 20260510025817 | 7 | 337 | 0.0 | 0.0 | 0.00 | 1.73 | 1.73 | 90 | 1015.2 |
| 20260510024818 | 7 | 337 | 3.2 | 4.8 | 0.00 | 1.73 | 1.73 | 90 | 1015.3 |
| 20260510023833 | 7 | 337 | 0.0 | 0.0 | 0.00 | 1.73 | 1.73 | 90 | 1015.3 |
| 20260510022819 | 7 | 337 | 0.0 | 0.0 | 0.00 | 1.73 | 1.73 | 89 | 1015.3 |
| 20260510022734 | 7 | 337 | 0.0 | 0.0 | 0.00 | 1.73 | 1.73 | 90 | 1015.3 |
| 20260510021717 | 7 | 337 | 0.0 | 0.0 | 0.00 | 1.73 | 1.73 | 89 | 1015.4 |
| 20260510021618 | 7 | 337 | 0.0 | 0.0 | 0.00 | 1.73 | 1.73 | 90 | 1015.5 |
| 20260510015617 | 7 | 180 | 0.0 | 0.0 | 0.00 | 1.73 | 1.73 | 90 | 1015.4 |
| 20260510014619 | 7 | 180 | 0.0 | 0.0 | 0.00 | 1.73 | 1.73 | 90 | 1015.5 |
| 20260510013632 | 7 | 180 | 1.6 | 1.6 | 0.00 | 1.73 | 1.73 | 90 | 1015.5 |
| 20260510012619 | 7 | 315 | 0.0 | 0.0 | 0.00 | 1.73 | 1.73 | 90 | 1015.7 |
| 20260510010720 | 7 | 315 | 0.0 | 0.0 | 0.00 | 1.73 | 1.73 | 90 | 1015.4 |
| 20260510005717 | 7 | 157 | 0.0 | 0.0 | 0.00 | 1.73 | 1.73 | 89 | 1015.1 |
| 20260510004718 | 7 | 157 | 0.0 | 0.0 | 0.00 | 1.73 | 1.73 | 90 | 1015.0 |
| 20260510004618 | 7 | 157 | 0.0 | 0.0 | 0.00 | 1.73 | 1.73 | 89 | 1015.1 |
| 20260510003619 | 7 | 157 | 0.0 | 0.0 | 0.00 | 1.73 | 1.73 | 90 | 1015.1 |
| 20260510002619 | 7 | 157 | 0.0 | 0.0 | 0.00 | 1.73 | 1.73 | 90 | 1015.0 |
| 20260510000536 | 7 | 157 | 0.0 | 1.6 | 0.00 | 1.73 | 1.73 | 90 | 1015.0 |
| 20260509235416 | 7 | 180 | 0.0 | 0.0 | 0.00 | 1.73 | 1.73 | 90 | 1014.9 |
| 20260509234516 | 7 | 180 | 0.0 | 0.0 | 0.03 | 1.73 | 1.73 | 89 | 1014.9 |
| 20260509233518 | 7 | 225 | 0.0 | 0.0 | 0.03 | 1.73 | 1.73 | 90 | 1014.8 |
| 20260509232617 | 7 | 225 | 0.0 | 0.0 | 0.03 | 1.73 | 1.73 | 89 | 1014.8 |
| 20260509232518 | 7 | 225 | 0.0 | 0.0 | 0.03 | 1.73 | 1.73 | 90 | 1014.8 |
| 20260509231518 | 7 | 286 | 0.0 | 1.6 | 0.03 | 1.73 | 1.73 | 89 | 1014.8 |
| 20260509230616 | 7 | 292 | 0.0 | 0.0 | 0.03 | 1.73 | 1.73 | 89 | 1014.6 |
| 20260509225633 | 7 | 292 | 0.0 | 0.0 | 0.03 | 1.73 | 1.73 | 89 | 1014.7 |
| 20260509223817 | 6 | 180 | 0.0 | 0.0 | 0.00 | 1.70 | 1.70 | 89 | 1014.8 |
| 20260509223719 | 6 | 180 | 0.0 | 0.0 | 0.00 | 1.70 | 1.70 | 90 | 1014.8 |
| 20260509222718 | 6 | 180 | 0.0 | 1.6 | 0.03 | 1.70 | 1.70 | 90 | 1014.7 |
| 20260509220716 | 6 | 315 | 0.0 | 1.6 | 0.10 | 1.70 | 1.70 | 90 | 1014.8 |
| 20260509215718 | 6 | 315 | 0.0 | 0.0 | 0.15 | 1.70 | 1.70 | 89 | 1015.0 |
| 20260509215619 | 6 | 315 | 0.0 | 0.0 | 0.15 | 1.70 | 1.70 | 90 | 1015.0 |
| 20260509214519 | 6 | 315 | 0.0 | 0.0 | 0.20 | 1.70 | 1.70 | 89 | 1015.0 |
| 20260509213518 | 6 | 270 | 0.0 | 0.0 | 0.25 | 1.70 | 1.70 | 90 | 1015.4 |
| 20260509212518 | 6 | 270 | 1.6 | 3.2 | 0.28 | 1.68 | 1.65 | 90 | 1015.5 |
| 20260509211517 | 6 | 270 | 1.6 | 1.6 | 0.30 | 1.65 | 1.63 | 89 | 1015.5 |
| 20260509211418 | 6 | 270 | 3.2 | 3.2 | 0.28 | 1.63 | 1.63 | 89 | 1015.5 |
| 20260509205417 | 6 | 126 | 0.0 | 0.0 | 0.25 | 1.52 | 1.52 | 90 | 1015.6 |
| 20260509205318 | 6 | 112 | 0.0 | 0.0 | 0.25 | 1.52 | 1.52 | 89 | 1015.6 |
| 20260509204318 | 6 | 112 | 0.0 | 0.0 | 0.23 | 1.45 | 1.45 | 89 | 1015.6 |
| 20260509203317 | 6 | 180 | 0.0 | 0.0 | 0.23 | 1.42 | 1.42 | 91 | 1015.7 |
| 20260509202416 | 6 | 180 | 0.0 | 0.0 | 0.23 | 1.40 | 1.37 | 91 | 1015.7 |
| 20260509202317 | 6 | 180 | 0.0 | 0.0 | 0.20 | 1.37 | 1.37 | 91 | 1015.6 |
| 20260509201318 | 6 | 337 | 0.0 | 0.0 | 0.20 | 1.35 | 1.35 | 91 | 1015.9 |
| 20260509201216 | 6 | 337 | 0.0 | 0.0 | 0.20 | 1.35 | 1.35 | 90 | 1015.8 |
| 20260509193218 | 6 | 157 | 0.0 | 0.0 | 0.18 | 1.19 | 1.19 | 91 | 1015.6 |
| 20260509192317 | 6 | 157 | 0.0 | 0.0 | 0.18 | 1.17 | 1.17 | 90 | 1015.8 |
| 20260509191216 | 6 | 157 | 0.0 | 1.6 | 0.20 | 1.14 | 1.12 | 91 | 1016.0 |
| 20260509190219 | 6 | 112 | 1.6 | 3.2 | 0.23 | 1.12 | 1.12 | 90 | 1015.8 |
| 20260509185316 | 6 | 157 | 0.0 | 0.0 | 0.20 | 1.07 | 1.07 | 90 | 1015.9 |
| 20260509184317 | 6 | 112 | 0.0 | 0.0 | 0.23 | 1.04 | 1.04 | 91 | 1016.0 |
| 20260509183318 | 6 | 112 | 3.2 | 4.8 | 0.23 | 1.02 | 1.02 | 91 | 1016.0 |
| 20260509182416 | 6 | 112 | 1.6 | 3.2 | 0.23 | 0.99 | 0.99 | 90 | 1016.2 |
| 20260509181418 | 6 | 112 | 0.0 | 1.6 | 0.23 | 0.94 | 0.94 | 91 | 1016.4 |
| 20260509181316 | 6 | 112 | 0.0 | 1.6 | 0.23 | 0.94 | 0.94 | 90 | 1016.4 |
| 20260509180317 | 6 | 112 | 0.0 | 0.0 | 0.20 | 0.89 | 0.89 | 91 | 1016.5 |
| 20260509175318 | 6 | 112 | 0.0 | 1.6 | 0.23 | 0.86 | 0.86 | 90 | 1016.6 |
| 20260509174416 | 6 | 135 | 0.0 | 1.6 | 0.25 | 0.81 | 0.81 | 91 | 1016.6 |
| 20260509173417 | 6 | 157 | 0.0 | 0.0 | 0.25 | 0.79 | 0.79 | 91 | 1016.7 |
| 20260509171417 | 6 | 112 | 0.0 | 1.6 | 0.25 | 0.71 | 0.71 | 91 | 1016.8 |
| 20260509171318 | 6 | 112 | 1.6 | 4.8 | 0.25 | 0.71 | 0.71 | 91 | 1016.7 |
| 20260509170317 | 6 | 157 | 1.6 | 3.2 | 0.28 | 0.69 | 0.66 | 90 | 1016.9 |
| 20260509170218 | 6 | 124 | 0.0 | 4.8 | 0.25 | 0.66 | 0.66 | 91 | 1016.8 |
| 20260509165217 | 6 | 136 | 0.0 | 3.2 | 0.23 | 0.61 | 0.61 | 91 | 1016.8 |
| 20260509162316 | 6 | 202 | 0.0 | 0.0 | 0.20 | 0.48 | 0.48 | 90 | 1016.8 |
| 20260509160317 | 6 | 157 | 0.0 | 0.0 | 0.15 | 0.41 | 0.41 | 91 | 1017.1 |
| 20260509155318 | 6 | 247 | 0.0 | 0.0 | 0.15 | 0.38 | 0.38 | 91 | 1017.1 |
| 20260509154317 | 6 | 157 | 0.0 | 3.2 | 0.15 | 0.36 | 0.33 | 91 | 1017.3 |
| 20260509154218 | 6 | 149 | 0.0 | 1.6 | 0.13 | 0.33 | 0.33 | 91 | 1017.2 |
| 20260509153217 | 6 | 157 | 0.0 | 0.0 | 0.13 | 0.30 | 0.30 | 91 | 1017.4 |
| 20260509153118 | 6 | 154 | 3.2 | 8.0 | 0.13 | 0.30 | 0.30 | 90 | 1017.4 |
| 20260509153017 | 6 | 135 | 4.8 | 8.0 | 0.13 | 0.30 | 0.30 | 91 | 1017.5 |
| 20260509152017 | 6 | 157 | 0.0 | 3.2 | 0.10 | 0.28 | 0.28 | 91 | 1017.6 |
| 20260509151017 | 6 | 135 | 1.6 | 3.2 | 0.10 | 0.25 | 0.25 | 91 | 1017.5 |
| 20260509145118 | 5 | 202 | 0.0 | 0.0 | 0.13 | 0.23 | 0.23 | 90 | 1017.5 |
| 20260509142118 | 5 | 225 | 0.0 | 0.0 | 0.10 | 0.18 | 0.18 | 91 | 1017.3 |
| 20260509142017 | 5 | 225 | 0.0 | 0.0 | 0.10 | 0.18 | 0.15 | 91 | 1017.2 |
| 20260509141017 | 5 | 202 | 0.0 | 4.8 | 0.10 | 0.15 | 0.15 | 90 | 1017.5 |
| 20260509140017 | 5 | 225 | 1.6 | 3.2 | 0.08 | 0.13 | 0.13 | 90 | 1017.5 |
| 20260509135116 | 5 | 157 | 1.6 | 1.6 | 0.08 | 0.10 | 0.10 | 91 | 1017.3 |
| 20260509134135 | 5 | 157 | 0.0 | 0.0 | 0.08 | 0.10 | 0.10 | 90 | 1017.1 |
| 20260509133217 | 5 | 157 | 0.0 | 0.0 | 0.08 | 0.08 | 0.08 | 91 | 1017.1 |
| 20260509132116 | 5 | 157 | 0.0 | 0.0 | 0.08 | 0.08 | 0.08 | 91 | 1017.1 |